Etusivu
METAR-TAF:

METAR-TAF

Lentoasemat :

Pajala-Ylläksen lentoasema

Pajala, Ruotsi

Leveyspiiri: 67-14-44N, Pituuspiiri: 023-04-08E, korkeus merenpinnasta: 165 m

Tämänhetkinen sää

Tämä raportti tehtiin 23 minuuttia sitten, kello 13.50 UTC
Tuuli 11 kn lännestä/luoteesta
Lämpötila -3°C
Kosteus 50%
Ilmanpaine 1020 hPa
Näkyvyys 10 km tai enemmän

METAR: ESUP 301350Z AUTO 30011KT 9999 SCT052/// M03/M12 Q1020

Aika: 16:13 (14:13 UTC)


TAF: puuttuu

Säähavainnot ja -ennusteet yli 4000 lentoasemalta (METAR- ja TAF-raportit).

Käytössä olevat sääasemat on merkitty karttaan keltaisilla ja punaisilla pisteillä.

Aseta hiiri pisteen päälle nähdäksesi sääaseman nimen.

Klikkaa sitten nähdäksesi säähavainnot ja -ennusteet.

Kartan vaihtaminen: klikkaa mustalla rastilla varustettuja vihreitä pisteitä, niin voit zoomata sisään; viivalla varustettua vihreää pistettä, niin voit zoomata ulos tai vihreitä nuolia, niin pääset viereisille kartoille.


METAR-TAF: